This is the latest recevied weather packets stored in our database for station/object W4MLN-1. If no packets are shown the sender has not sent any weather packets the latest 10 day(s).
| Time | Temp. | Humidity | Pressure | Rain* | Wind** | Luminosity | Snow |
|---|---|---|---|---|---|---|---|
| 1777641541 | 7.22° C | 77% | 1014.9 hPa | 0 mm | - | 220 W/m² | - |
| 1777641241 | 7.22° C | 79% | 1014.8 hPa | 0 mm | - | 310 W/m² | - |
| 1777640941 | 6.67° C | 81% | 1014.8 hPa | 0 mm | - | 184 W/m² | - |
| 1777640641 | 6.67° C | 82% | 1014.8 hPa | 0 mm | - | 168 W/m² | - |
| 1777640341 | 6.11° C | 83% | 1014.8 hPa | 0 mm | - | 135 W/m² | - |
| 1777640027 | 6.11° C | 85% | 1014.7 hPa | 0 mm | - | 176 W/m² | - |
| 1777639727 | 5.56° C | 87% | 1014.7 hPa | 0 mm | - | 193 W/m² | - |
| 1777639411 | 5.56° C | 88% | 1014.8 hPa | 0 mm | - | 183 W/m² | - |
| 1777639112 | 5.56° C | 89% | 1014.8 hPa | 0 mm | - | 164 W/m² | - |
| 1777638812 | 5° C | 91% | 1014.9 hPa | 0 mm | - | 134 W/m² | - |
| 1777638512 | 5° C | 92% | 1014.9 hPa | 0 mm | - | 137 W/m² | - |
| 1777638212 | 5° C | 92% | 1014.9 hPa | 0 mm | - | 138 W/m² | - |
| 1777637912 | 4.44° C | 93% | 1014.9 hPa | 0 mm | - | 100 W/m² | - |
| 1777637612 | 4.44° C | 94% | 1015 hPa | 0 mm | - | 108 W/m² | - |
| 1777637312 | 4.44° C | 93% | 1015 hPa | 0 mm | - | 84 W/m² | - |
| 1777637013 | 4.44° C | 95% | 1015 hPa | 0 mm | - | 90 W/m² | - |
| 1777636710 | 4.44° C | 96% | 1015 hPa | 0 mm | - | 64 W/m² | - |
| 1777636411 | 3.89° C | 96% | 1014.9 hPa | 0 mm | - | 69 W/m² | - |
| 1777636111 | 3.89° C | 97% | 1014.9 hPa | 0 mm | - | 85 W/m² | - |
| 1777635811 | 3.89° C | 98% | 1014.8 hPa | 0 mm | - | 67 W/m² | - |
| 1777635511 | 3.89° C | 98% | 1014.8 hPa | 0 mm | - | 75 W/m² | - |
| 1777635198 | 3.33° C | 99% | 1014.8 hPa | 0 mm | - | 49 W/m² | - |
| 1777634898 | 3.33° C | 99% | 1014.9 hPa | 0 mm | - | 54 W/m² | - |
| 1777634597 | 3.33° C | 99% | 1014.7 hPa | 0 mm | - | 40 W/m² | - |
| 1777634298 | 3.33° C | 99% | 1014.7 hPa | 0 mm | - | 31 W/m² | - |
* Rain latest hour (hover to see other rain measurements)
** Current wind speed in m/s (hover to see current wind gust speed)